Location: Gro�sch�nbrunn
(49.5760°N, 11.8868°E)
Time: 03:30:25
(UTC+00:00)

Cosmos 2278 Rocket - Pass Details

Date: 18 September 2020
Orbit: 842 x 845 km, 71.0° (Epoch: 18 October)

Event Time Altitude Azimuth Distance (km) Brightness Sun altitude
Exits shadow 21:22:37 26° 26° (NNE) 1,606 3.8 -34.3°
Drops below altitude 10° 21:24:58 10° 28° (NNE) 2,471 4.9 -34.5°
Sets 21:27:26 0° 29° (NNE) 3,410 5.7 -34.7°
